Time,TemperatureF,DewpointF,PressureIn,WindDirection,WindDirectionDegrees,WindSpeedMPH,WindSpeedGustMPH,Humidity,HourlyPrecipIn,Conditions,Clouds,dailyrainin,SolarRadiationWatts/m^2,SoftwareType,DateUTC
2013-08-04 00:00:00,62.4,60.1,29.86,SW,219,1.0,4.0,85,0.00,,,0.00,0.0,meteohub,2013-08-04 04:00:00,
2013-08-04 00:01:00,62.2,59.9,29.86,SW,219,0.0,4.0,85,0.00,,,0.00,0.0,meteohub,2013-08-04 04:01:00,
2013-08-04 00:02:00,62.2,59.9,29.86,SW,219,0.0,4.0,85,0.00,,,0.00,0.0,meteohub,2013-08-04 04:02:00,
2013-08-04 00:07:00,62.1,59.7,29.86,SW,219,0.0,4.0,85,0.00,,,0.00,0.0,meteohub,2013-08-04 04:07:00,
2013-08-04 00:12:00,62.1,60.1,29.86,SW,219,0.0,1.0,86,0.00,,,0.00,0.0,meteohub,2013-08-04 04:12:00,
2013-08-04 00:17:00,61.9,59.9,29.86,SW,219,0.0,1.0,86,0.00,,,0.00,0.0,meteohub,2013-08-04 04:17:00,
2013-08-04 00:22:00,61.9,59.9,29.86,SW,219,0.0,0.0,86,0.00,,,0.00,0.0,meteohub,2013-08-04 04:22:00,
2013-08-04 00:27:00,61.7,59.7,29.86,SW,219,0.0,0.0,86,0.00,,,0.00,0.0,meteohub,2013-08-04 04:27:00,
2013-08-04 00:32:00,61.5,59.5,29.85,SW,219,0.0,1.0,86,0.00,,,0.00,0.0,meteohub,2013-08-04 04:32:00,
2013-08-04 00:37:00,61.5,59.5,29.85,SW,219,0.0,1.0,86,0.00,,,0.00,0.0,meteohub,2013-08-04 04:37:00,
2013-08-04 00:42:00,61.3,59.4,29.85,SW,219,0.0,1.0,86,0.00,,,0.00,0.0,meteohub,2013-08-04 04:42:00,
2013-08-04 00:47:00,61.3,59.5,29.85,SW,219,0.0,0.0,86,0.00,,,0.00,0.0,meteohub,2013-08-04 04:47:00,
2013-08-04 00:52:00,61.2,59.4,29.85,SW,219,0.0,0.0,86,0.00,,,0.00,0.0,meteohub,2013-08-04 04:52:00,
2013-08-04 00:57:00,61.2,59.2,29.85,SW,219,0.0,0.0,86,0.00,,,0.00,0.0,meteohub,2013-08-04 04:57:00,
2013-08-04 01:02:00,61.0,59.2,29.84,SW,219,0.0,1.0,86,0.00,,,0.00,0.0,meteohub,2013-08-04 05:02:00,
2013-08-04 01:07:00,61.0,59.2,29.84,SW,219,0.0,1.0,86,0.00,,,0.00,0.0,meteohub,2013-08-04 05:07:00,
2013-08-04 01:12:00,60.8,59.0,29.84,SW,219,0.0,1.0,86,0.00,,,0.00,0.0,meteohub,2013-08-04 05:12:00,
2013-08-04 01:18:00,60.6,58.8,29.84,SW,219,0.0,2.0,86,0.00,,,0.00,0.0,meteohub,2013-08-04 05:18:00,
2013-08-04 01:23:00,60.6,58.8,29.84,SSW,205,0.0,2.0,86,0.00,,,0.00,0.0,meteohub,2013-08-04 05:23:00,
2013-08-04 01:28:00,60.4,58.6,29.84,SSW,205,0.0,4.0,86,0.00,,,0.00,0.0,meteohub,2013-08-04 05:28:00,
2013-08-04 01:33:00,60.4,58.6,29.83,SSW,205,0.0,4.0,86,0.00,,,0.00,0.0,meteohub,2013-08-04 05:33:00,
2013-08-04 01:38:00,60.4,58.6,29.83,SSW,205,1.0,4.0,86,0.00,,,0.00,0.0,meteohub,2013-08-04 05:38:00,
2013-08-04 01:43:00,60.3,58.5,29.84,SSW,205,0.0,2.0,86,0.00,,,0.00,0.0,meteohub,2013-08-04 05:43:00,
2013-08-04 01:48:00,60.3,58.5,29.84,SSW,201,0.0,2.0,86,0.00,,,0.00,0.0,meteohub,2013-08-04 05:48:00,
2013-08-04 01:52:00,60.1,58.3,29.83,SSW,201,0.0,3.0,86,0.00,,,0.00,0.0,meteohub,2013-08-04 05:52:00,
2013-08-04 01:58:00,60.1,58.3,29.83,SSW,201,1.0,3.0,86,0.00,,,0.00,0.0,meteohub,2013-08-04 05:58:00,
2013-08-04 02:03:00,60.1,58.3,29.83,SSW,203,2.0,3.0,86,0.00,,,0.00,0.0,meteohub,2013-08-04 06:03:00,
2013-08-04 02:08:00,59.9,58.1,29.83,SSW,204,0.0,4.0,86,0.00,,,0.00,0.0,meteohub,2013-08-04 06:08:00,
2013-08-04 02:13:00,59.7,57.9,29.83,SSW,204,1.0,4.0,86,0.00,,,0.00,0.0,meteohub,2013-08-04 06:13:00,
2013-08-04 02:17:00,59.7,57.9,29.83,SSW,205,0.0,3.0,86,0.00,,,0.00,0.0,meteohub,2013-08-04 06:17:00,
2013-08-04 02:23:00,59.5,57.7,29.83,SSW,205,0.0,3.0,86,0.00,,,0.00,0.0,meteohub,2013-08-04 06:23:00,
2013-08-04 02:28:00,59.5,57.7,29.84,SSW,206,0.0,3.0,86,0.00,,,0.00,0.0,meteohub,2013-08-04 06:28:00,
2013-08-04 02:33:00,59.4,57.4,29.84,SSW,206,0.0,2.0,86,0.00,,,0.00,0.0,meteohub,2013-08-04 06:33:00,
2013-08-04 02:38:00,59.2,57.2,29.84,SSW,206,2.0,2.0,86,0.00,,,0.00,0.0,meteohub,2013-08-04 06:38:00,
2013-08-04 02:43:00,59.2,57.2,29.83,SSW,206,0.0,2.0,86,0.00,,,0.00,0.0,meteohub,2013-08-04 06:43:00,
2013-08-04 02:48:00,59.0,57.2,29.84,SSW,206,0.0,2.0,86,0.00,,,0.00,0.0,meteohub,2013-08-04 06:48:00,
2013-08-04 02:53:00,59.0,57.2,29.84,SSW,206,0.0,2.0,86,0.00,,,0.00,0.0,meteohub,2013-08-04 06:53:00,
2013-08-04 02:58:00,59.0,57.6,29.84,SSW,206,0.0,3.0,87,0.00,,,0.00,0.0,meteohub,2013-08-04 06:58:00,
2013-08-04 03:03:00,58.8,57.0,29.83,SSW,206,0.0,3.0,86,0.00,,,0.00,0.0,meteohub,2013-08-04 07:03:00,
2013-08-04 03:08:00,58.8,57.0,29.83,SSW,206,0.0,3.0,86,0.00,,,0.00,0.0,meteohub,2013-08-04 07:08:00,
2013-08-04 03:13:00,58.8,57.0,29.83,SSW,206,0.0,2.0,86,0.00,,,0.00,0.0,meteohub,2013-08-04 07:13:00,
2013-08-04 03:18:00,58.6,56.8,29.83,SSW,207,0.0,3.0,86,0.00,,,0.00,0.0,meteohub,2013-08-04 07:18:00,
2013-08-04 03:23:00,58.6,56.8,29.83,SSW,207,1.0,3.0,86,0.00,,,0.00,0.0,meteohub,2013-08-04 07:23:00,
2013-08-04 03:28:00,58.6,57.2,29.83,SSW,207,0.0,3.0,87,0.00,,,0.00,0.0,meteohub,2013-08-04 07:28:00,
2013-08-04 03:33:00,58.6,57.2,29.83,SSW,207,0.0,3.0,87,0.00,,,0.00,0.0,meteohub,2013-08-04 07:33:00,
2013-08-04 03:38:00,58.6,56.8,29.83,SSW,207,0.0,2.0,86,0.00,,,0.00,0.0,meteohub,2013-08-04 07:38:00,
2013-08-04 03:43:00,58.5,56.7,29.83,SSW,206,0.0,2.0,86,0.00,,,0.00,0.0,meteohub,2013-08-04 07:43:00,
2013-08-04 03:48:00,58.5,56.7,29.83,SSW,207,0.0,2.0,86,0.00,,,0.00,0.0,meteohub,2013-08-04 07:48:00,
2013-08-04 03:53:00,58.3,56.3,29.83,SSW,207,0.0,2.0,86,0.00,,,0.00,0.0,meteohub,2013-08-04 07:53:00,
2013-08-04 03:58:00,58.1,56.3,29.83,SSW,207,0.0,3.0,86,0.00,,,0.00,0.0,meteohub,2013-08-04 07:58:00,
2013-08-04 04:03:00,57.9,55.9,29.83,SSW,207,0.0,3.0,86,0.00,,,0.00,0.0,meteohub,2013-08-04 08:03:00,
2013-08-04 04:08:00,57.9,55.9,29.83,SSW,207,0.0,3.0,86,0.00,,,0.00,0.0,meteohub,2013-08-04 08:08:00,
2013-08-04 04:13:00,57.7,55.8,29.84,SSW,207,0.0,2.0,86,0.00,,,0.00,0.0,meteohub,2013-08-04 08:13:00,
2013-08-04 04:18:00,57.7,55.9,29.83,SSW,207,0.0,2.0,86,0.00,,,0.00,0.0,meteohub,2013-08-04 08:18:00,
2013-08-04 04:23:00,57.7,55.9,29.84,SSW,207,0.0,1.0,86,0.00,,,0.00,0.0,meteohub,2013-08-04 08:23:00,
2013-08-04 04:28:00,57.7,56.3,29.83,SSW,207,0.0,0.0,87,0.00,,,0.00,0.0,meteohub,2013-08-04 08:28:00,
2013-08-04 04:33:00,57.7,55.9,29.83,SSW,207,0.0,0.0,86,0.00,,,0.00,0.0,meteohub,2013-08-04 08:33:00,
2013-08-04 04:38:00,57.7,55.9,29.83,SSW,207,0.0,0.0,86,0.00,,,0.00,0.0,meteohub,2013-08-04 08:38:00,
2013-08-04 04:43:00,57.7,55.9,29.83,SSW,207,0.0,0.0,86,0.00,,,0.00,0.0,meteohub,2013-08-04 08:43:00,
2013-08-04 04:48:00,57.7,55.9,29.83,SSW,207,0.0,1.0,86,0.00,,,0.00,0.0,meteohub,2013-08-04 08:48:00,
2013-08-04 04:53:00,57.7,55.9,29.84,SSW,207,0.0,1.0,86,0.00,,,0.00,0.0,meteohub,2013-08-04 08:53:00,
2013-08-04 04:58:00,57.7,56.3,29.83,SSW,207,0.0,1.0,87,0.00,,,0.00,0.0,meteohub,2013-08-04 08:58:00,
2013-08-04 05:03:00,57.7,56.3,29.83,SSW,207,0.0,1.0,87,0.00,,,0.00,0.0,meteohub,2013-08-04 09:03:00,
2013-08-04 05:08:00,57.7,56.3,29.83,SSW,207,0.0,1.0,87,0.00,,,0.00,0.0,meteohub,2013-08-04 09:08:00,
2013-08-04 05:14:00,57.7,56.3,29.84,SSW,207,0.0,1.0,87,0.00,,,0.00,0.0,meteohub,2013-08-04 09:14:00,
2013-08-04 05:19:00,57.7,56.3,29.84,SSW,207,0.0,0.0,87,0.00,,,0.00,0.0,meteohub,2013-08-04 09:19:00,
2013-08-04 05:23:00,57.6,55.8,29.83,SSW,207,0.0,0.0,86,0.00,,,0.00,0.0,meteohub,2013-08-04 09:23:00,
2013-08-04 05:29:00,57.6,56.1,29.83,SSW,207,0.0,0.0,87,0.00,,,0.00,0.0,meteohub,2013-08-04 09:29:00,
2013-08-04 05:33:00,57.6,56.1,29.84,SSW,207,0.0,0.0,87,0.00,,,0.00,0.0,meteohub,2013-08-04 09:33:00,
2013-08-04 05:39:00,57.6,56.1,29.84,SSW,207,0.0,0.0,87,0.00,,,0.00,0.0,meteohub,2013-08-04 09:39:00,
2013-08-04 05:44:00,57.6,56.1,29.84,SSW,207,0.0,0.0,87,0.00,,,0.00,0.0,meteohub,2013-08-04 09:44:00,
2013-08-04 05:49:00,57.6,55.8,29.84,SSW,207,0.0,0.0,86,0.00,,,0.00,0.0,meteohub,2013-08-04 09:49:00,
2013-08-04 05:54:00,57.4,55.6,29.84,SSW,207,0.0,0.0,86,0.00,,,0.00,7.0,meteohub,2013-08-04 09:54:00,
2013-08-04 05:59:00,57.4,55.6,29.83,SSW,207,0.0,0.0,86,0.00,,,0.00,12.0,meteohub,2013-08-04 09:59:00,
2013-08-04 06:04:00,57.4,55.9,29.84,SSW,207,0.0,0.0,87,0.00,,,0.00,19.0,meteohub,2013-08-04 10:04:00,
2013-08-04 06:09:00,57.4,55.9,29.84,SSW,207,0.0,0.0,87,0.00,,,0.00,23.0,meteohub,2013-08-04 10:09:00,
2013-08-04 06:14:00,57.4,55.9,29.84,SSW,207,0.0,0.0,87,0.00,,,0.00,26.0,meteohub,2013-08-04 10:14:00,
2013-08-04 06:19:00,57.2,55.8,29.84,SSW,207,0.0,0.0,87,0.00,,,0.00,30.0,meteohub,2013-08-04 10:19:00,
2013-08-04 06:24:00,57.2,55.8,29.84,SSW,207,0.0,1.0,87,0.00,,,0.00,32.0,meteohub,2013-08-04 10:24:00,
2013-08-04 06:29:00,57.2,55.8,29.84,SSW,207,0.0,1.0,87,0.00,,,0.00,35.0,meteohub,2013-08-04 10:29:00,
2013-08-04 06:34:00,57.4,55.9,29.84,SSW,207,0.0,0.0,87,0.00,,,0.00,40.0,meteohub,2013-08-04 10:34:00,
2013-08-04 06:39:00,57.4,56.3,29.84,SSW,207,0.0,0.0,88,0.00,,,0.00,56.0,meteohub,2013-08-04 10:39:00,
2013-08-04 06:44:00,57.6,56.5,29.84,SSW,207,0.0,0.0,88,0.00,,,0.00,65.0,meteohub,2013-08-04 10:44:00,
2013-08-04 06:49:00,57.7,56.7,29.85,SSW,207,0.0,0.0,88,0.00,,,0.00,70.0,meteohub,2013-08-04 10:49:00,
2013-08-04 06:54:00,57.9,56.8,29.85,SSW,207,0.0,1.0,88,0.00,,,0.00,54.0,meteohub,2013-08-04 10:54:00,
2013-08-04 06:59:00,58.3,57.2,29.85,SSW,207,0.0,1.0,88,0.00,,,0.00,39.0,meteohub,2013-08-04 10:59:00,
2013-08-04 07:04:00,58.5,57.4,29.85,SSW,207,0.0,1.0,88,0.00,,,0.00,32.0,meteohub,2013-08-04 11:04:00,
2013-08-04 07:09:00,58.6,57.6,29.85,SSW,207,0.0,1.0,88,0.00,,,0.00,32.0,meteohub,2013-08-04 11:09:00,
2013-08-04 07:14:00,58.8,57.4,29.85,SSW,207,0.0,1.0,87,0.00,,,0.00,56.0,meteohub,2013-08-04 11:14:00,
2013-08-04 07:19:00,58.8,57.4,29.85,SSW,207,0.0,0.0,87,0.00,,,0.00,47.0,meteohub,2013-08-04 11:19:00,
2013-08-04 07:24:00,58.8,57.0,29.85,SSW,207,0.0,0.0,86,0.00,,,0.00,62.0,meteohub,2013-08-04 11:24:00,
2013-08-04 07:29:00,59.2,57.4,29.85,SSW,207,2.0,0.0,86,0.00,,,0.00,49.0,meteohub,2013-08-04 11:29:00,
2013-08-04 07:34:00,59.2,57.4,29.85,SSW,213,0.0,0.0,86,0.00,,,0.00,47.0,meteohub,2013-08-04 11:34:00,
2013-08-04 07:39:00,59.4,57.4,29.85,WNW,296,0.0,4.0,86,0.00,,,0.00,49.0,meteohub,2013-08-04 11:39:00,
2013-08-04 07:44:00,59.7,57.4,29.86,WNW,290,0.0,4.0,85,0.00,,,0.00,60.0,meteohub,2013-08-04 11:44:00,
2013-08-04 07:49:00,60.1,57.4,29.86,WNW,282,0.0,4.0,84,0.00,,,0.00,58.0,meteohub,2013-08-04 11:49:00,
2013-08-04 07:54:00,60.3,57.4,29.85,West,263,0.0,4.0,83,0.00,,,0.00,62.0,meteohub,2013-08-04 11:54:00,
2013-08-04 07:59:00,60.8,57.6,29.85,West,275,2.0,5.0,82,0.00,,,0.00,49.0,meteohub,2013-08-04 11:59:00,
2013-08-04 08:05:00,61.2,57.9,29.85,West,275,0.0,6.0,82,0.00,,,0.00,51.0,meteohub,2013-08-04 12:05:00,
2013-08-04 08:10:00,61.7,58.1,29.85,WNW,292,4.0,6.0,81,0.00,,,0.00,102.0,meteohub,2013-08-04 12:10:00,
2013-08-04 08:15:00,62.2,58.3,29.85,NW,304,4.0,6.0,80,0.00,,,0.00,74.0,meteohub,2013-08-04 12:15:00,
2013-08-04 08:20:00,62.8,58.8,29.85,NW,309,6.0,7.0,80,0.00,,,0.00,63.0,meteohub,2013-08-04 12:20:00,
2013-08-04 08:25:00,63.3,58.8,29.85,WNW,284,5.0,7.0,78,0.00,,,0.00,69.0,meteohub,2013-08-04 12:25:00,
2013-08-04 08:30:00,63.9,58.6,29.85,WNW,296,3.0,7.0,76,0.00,,,0.00,220.0,meteohub,2013-08-04 12:30:00,
2013-08-04 08:35:00,64.2,59.0,29.85,WNW,293,5.0,9.0,76,0.00,,,0.00,452.0,meteohub,2013-08-04 12:35:00,
2013-08-04 08:40:00,64.8,59.2,29.85,NW,311,6.0,9.0,75,0.00,,,0.00,466.0,meteohub,2013-08-04 12:40:00,
2013-08-04 08:45:00,65.1,59.5,29.85,SW,226,5.0,8.0,75,0.00,,,0.00,487.0,meteohub,2013-08-04 12:45:00,
2013-08-04 08:50:00,65.5,59.5,29.84,WSW,254,5.0,8.0,75,0.00,,,0.00,520.0,meteohub,2013-08-04 12:50:00,
2013-08-04 08:55:00,65.7,59.4,29.84,WSW,255,0.0,8.0,74,0.00,,,0.00,548.0,meteohub,2013-08-04 12:55:00,
2013-08-04 09:00:00,66.0,59.7,29.84,West,271,1.0,6.0,74,0.00,,,0.00,564.0,meteohub,2013-08-04 13:00:00,
2013-08-04 09:05:00,66.4,59.7,29.84,NW,311,2.0,8.0,73,0.00,,,0.00,578.0,meteohub,2013-08-04 13:05:00,
2013-08-04 09:10:00,66.7,60.4,29.84,WSW,242,0.0,8.0,74,0.00,,,0.00,592.0,meteohub,2013-08-04 13:10:00,
2013-08-04 09:15:00,67.3,59.9,29.84,NNW,344,3.0,9.0,71,0.00,,,0.00,606.0,meteohub,2013-08-04 13:15:00,
2013-08-04 09:20:00,67.6,59.7,29.84,WNW,294,1.0,9.0,70,0.00,,,0.00,619.0,meteohub,2013-08-04 13:20:00,
2013-08-04 09:25:00,68.4,60.8,29.85,NW,308,4.0,9.0,71,0.00,,,0.00,631.0,meteohub,2013-08-04 13:25:00,
2013-08-04 09:30:00,68.7,60.4,29.84,West,276,6.0,9.0,69,0.00,,,0.00,612.0,meteohub,2013-08-04 13:30:00,
2013-08-04 09:35:00,69.3,60.6,29.84,WNW,302,3.0,7.0,68,0.00,,,0.00,661.0,meteohub,2013-08-04 13:35:00,
2013-08-04 09:40:00,69.8,61.2,29.84,NW,309,3.0,7.0,68,0.00,,,0.00,671.0,meteohub,2013-08-04 13:40:00,
2013-08-04 09:45:00,70.3,60.8,29.84,SW,216,4.0,7.0,66,0.00,,,0.00,684.0,meteohub,2013-08-04 13:45:00,
2013-08-04 09:50:00,70.9,61.3,29.84,WNW,293,4.0,7.0,66,0.00,,,0.00,698.0,meteohub,2013-08-04 13:50:00,
2013-08-04 09:55:00,71.2,61.0,29.84,WNW,285,0.0,10.0,64,0.00,,,0.00,712.0,meteohub,2013-08-04 13:55:00,
2013-08-04 10:00:00,71.8,61.9,29.84,WSW,239,2.0,10.0,65,0.00,,,0.00,724.0,meteohub,2013-08-04 14:00:00,
2013-08-04 10:05:00,72.0,61.2,29.84,SSW,211,0.0,10.0,63,0.00,,,0.00,738.0,meteohub,2013-08-04 14:05:00,
2013-08-04 10:10:00,72.3,62.8,29.84,WNW,292,1.0,7.0,66,0.00,,,0.00,758.0,meteohub,2013-08-04 14:10:00,
2013-08-04 10:15:00,72.7,61.9,29.83,WNW,283,2.0,7.0,63,0.00,,,0.00,768.0,meteohub,2013-08-04 14:15:00,
2013-08-04 10:20:00,73.0,61.0,29.83,West,264,6.0,7.0,61,0.00,,,0.00,773.0,meteohub,2013-08-04 14:20:00,
2013-08-04 10:25:00,73.2,61.2,29.83,NNW,327,0.0,12.0,61,0.00,,,0.00,780.0,meteohub,2013-08-04 14:25:00,
2013-08-04 10:30:00,73.6,60.3,29.83,WNW,285,9.0,12.0,58,0.00,,,0.00,789.0,meteohub,2013-08-04 14:30:00,
2013-08-04 10:35:00,73.6,61.5,29.83,SW,218,0.0,12.0,61,0.00,,,0.00,802.0,meteohub,2013-08-04 14:35:00,
2013-08-04 10:40:00,73.9,62.8,29.83,WNW,302,5.0,10.0,63,0.00,,,0.00,810.0,meteohub,2013-08-04 14:40:00,
2013-08-04 10:45:00,74.3,61.7,29.83,NW,313,0.0,10.0,60,0.00,,,0.00,821.0,meteohub,2013-08-04 14:45:00,
2013-08-04 10:50:00,74.5,61.0,29.83,NW,316,3.0,9.0,58,0.00,,,0.00,833.0,meteohub,2013-08-04 14:50:00,
2013-08-04 10:55:00,74.8,61.0,29.83,WSW,250,4.0,10.0,57,0.00,,,0.00,846.0,meteohub,2013-08-04 14:55:00,
2013-08-04 11:00:00,74.8,61.0,29.83,NW,309,10.0,10.0,57,0.00,,,0.00,849.0,meteohub,2013-08-04 15:00:00,
2013-08-04 11:05:00,75.0,61.5,29.83,West,266,0.0,10.0,58,0.00,,,0.00,860.0,meteohub,2013-08-04 15:05:00,
2013-08-04 11:10:00,75.2,60.8,29.83,NW,321,2.0,10.0,56,0.00,,,0.00,870.0,meteohub,2013-08-04 15:10:00,
2013-08-04 11:15:00,75.4,61.0,29.83,West,268,6.0,10.0,56,0.00,,,0.00,863.0,meteohub,2013-08-04 15:15:00,
2013-08-04 11:20:00,75.4,59.5,29.83,NW,319,5.0,10.0,53,0.00,,,0.00,573.0,meteohub,2013-08-04 15:20:00,
2013-08-04 11:25:00,75.4,59.0,29.83,WNW,284,1.0,11.0,52,0.00,,,0.00,573.0,meteohub,2013-08-04 15:25:00,
2013-08-04 11:30:00,75.6,60.3,29.83,WNW,293,6.0,11.0,54,0.00,,,0.00,1005.0,meteohub,2013-08-04 15:30:00,
2013-08-04 11:35:00,75.6,57.2,29.83,NW,325,5.0,13.0,49,0.00,,,0.00,722.0,meteohub,2013-08-04 15:35:00,
2013-08-04 11:40:00,75.6,58.3,29.83,West,275,5.0,16.0,51,0.00,,,0.00,997.0,meteohub,2013-08-04 15:40:00,
2013-08-04 11:45:00,75.7,58.5,29.83,NNW,332,6.0,16.0,51,0.00,,,0.00,976.0,meteohub,2013-08-04 15:45:00,
2013-08-04 11:50:00,75.7,57.4,29.83,NW,309,10.0,15.0,49,0.00,,,0.00,998.0,meteohub,2013-08-04 15:50:00,
2013-08-04 11:55:00,75.7,59.9,29.83,West,265,0.0,15.0,53,0.00,,,0.00,1063.0,meteohub,2013-08-04 15:55:00,
2013-08-04 12:00:00,75.9,58.6,29.83,NW,307,7.0,15.0,51,0.00,,,0.00,854.0,meteohub,2013-08-04 16:00:00,
2013-08-04 12:05:00,75.9,58.1,29.83,NW,307,8.0,15.0,50,0.00,,,0.00,297.0,meteohub,2013-08-04 16:05:00,
2013-08-04 12:10:00,75.7,59.0,29.83,WNW,290,2.0,15.0,52,0.00,,,0.00,267.0,meteohub,2013-08-04 16:10:00,
2013-08-04 12:15:00,75.6,60.3,29.83,West,275,7.0,10.0,54,0.00,,,0.00,529.0,meteohub,2013-08-04 16:15:00,
2013-08-04 12:20:00,75.7,60.8,29.83,WSW,249,2.0,13.0,55,0.00,,,0.00,819.0,meteohub,2013-08-04 16:20:00,
2013-08-04 12:25:00,75.7,59.4,29.83,West,281,0.0,13.0,52,0.00,,,0.00,714.0,meteohub,2013-08-04 16:25:00,
2013-08-04 12:30:00,75.9,61.5,29.83,NW,309,4.0,11.0,56,0.00,,,0.00,775.0,meteohub,2013-08-04 16:30:00,
2013-08-04 12:35:00,76.1,60.3,29.83,WNW,286,0.0,11.0,53,0.00,,,0.00,819.0,meteohub,2013-08-04 16:35:00,
2013-08-04 12:40:00,76.3,59.4,29.83,West,266,2.0,11.0,52,0.00,,,0.00,791.0,meteohub,2013-08-04 16:40:00,
2013-08-04 12:45:00,76.3,59.0,29.83,WNW,292,7.0,11.0,51,0.00,,,0.00,895.0,meteohub,2013-08-04 16:45:00,
2013-08-04 12:51:00,76.3,59.9,29.83,WNW,286,1.0,12.0,52,0.00,,,0.00,680.0,meteohub,2013-08-04 16:51:00,
2013-08-04 12:55:00,76.1,60.3,29.82,WNW,290,4.0,12.0,53,0.00,,,0.00,995.0,meteohub,2013-08-04 16:55:00,
2013-08-04 13:01:00,76.3,61.9,29.82,West,274,7.0,12.0,56,0.00,,,0.00,995.0,meteohub,2013-08-04 17:01:00,
2013-08-04 13:06:00,76.3,61.3,29.82,West,272,5.0,10.0,55,0.00,,,0.00,413.0,meteohub,2013-08-04 17:06:00,
2013-08-04 13:11:00,76.3,59.0,29.82,West,273,1.0,11.0,51,0.00,,,0.00,206.0,meteohub,2013-08-04 17:11:00,
2013-08-04 13:16:00,75.9,61.5,29.82,WNW,290,0.0,11.0,56,0.00,,,0.00,213.0,meteohub,2013-08-04 17:16:00,
2013-08-04 13:21:00,75.9,61.5,29.81,WNW,288,0.0,11.0,56,0.00,,,0.00,1048.0,meteohub,2013-08-04 17:21:00,
2013-08-04 13:26:00,75.9,60.6,29.81,West,271,3.0,6.0,54,0.00,,,0.00,828.0,meteohub,2013-08-04 17:26:00,
2013-08-04 13:30:00,75.9,59.5,29.81,WSW,252,1.0,11.0,52,0.00,,,0.00,990.0,meteohub,2013-08-04 17:30:00,
2013-08-04 13:36:00,75.9,60.6,29.81,WNW,294,5.0,11.0,54,0.00,,,0.00,1079.0,meteohub,2013-08-04 17:36:00,
2013-08-04 13:41:00,76.3,59.9,29.81,North,351,1.0,11.0,52,0.00,,,0.00,946.0,meteohub,2013-08-04 17:41:00,
2013-08-04 13:46:00,76.5,58.1,29.81,WNW,297,6.0,13.0,49,0.00,,,0.00,272.0,meteohub,2013-08-04 17:46:00,
2013-08-04 13:51:00,76.5,60.1,29.81,NW,325,6.0,13.0,52,0.00,,,0.00,928.0,meteohub,2013-08-04 17:51:00,
2013-08-04 13:56:00,76.5,58.6,29.81,NW,321,0.0,15.0,50,0.00,,,0.00,907.0,meteohub,2013-08-04 17:56:00,
2013-08-04 14:01:00,76.5,59.5,29.81,NW,310,9.0,15.0,52,0.00,,,0.00,907.0,meteohub,2013-08-04 18:01:00,
2013-08-04 14:06:00,76.3,59.0,29.80,WNW,296,0.0,15.0,51,0.00,,,0.00,939.0,meteohub,2013-08-04 18:06:00,
2013-08-04 14:11:00,76.1,59.2,29.80,WNW,285,6.0,12.0,52,0.00,,,0.00,116.0,meteohub,2013-08-04 18:11:00,
2013-08-04 14:16:00,75.9,57.6,29.80,West,274,5.0,11.0,49,0.00,,,0.00,891.0,meteohub,2013-08-04 18:16:00,
2013-08-04 14:21:00,75.9,59.2,29.79,WNW,282,0.0,9.0,52,0.00,,,0.00,935.0,meteohub,2013-08-04 18:21:00,
2013-08-04 14:26:00,75.9,58.6,29.79,WSW,250,2.0,7.0,51,0.00,,,0.00,142.0,meteohub,2013-08-04 18:26:00,
2013-08-04 14:31:00,75.7,59.9,29.79,WNW,299,0.0,10.0,53,0.00,,,0.00,403.0,meteohub,2013-08-04 18:31:00,
2013-08-04 14:36:00,75.7,60.8,29.79,SSW,212,0.0,10.0,55,0.00,,,0.00,230.0,meteohub,2013-08-04 18:36:00,
2013-08-04 14:41:00,75.7,59.0,29.79,West,275,10.0,10.0,52,0.00,,,0.00,888.0,meteohub,2013-08-04 18:41:00,
2013-08-04 14:46:00,75.9,58.6,29.79,WSW,238,3.0,15.0,51,0.00,,,0.00,872.0,meteohub,2013-08-04 18:46:00,
2013-08-04 14:51:00,76.1,59.2,29.79,West,264,7.0,15.0,52,0.00,,,0.00,896.0,meteohub,2013-08-04 18:51:00,
2013-08-04 14:56:00,76.3,59.0,29.79,West,274,0.0,15.0,51,0.00,,,0.00,851.0,meteohub,2013-08-04 18:56:00,
2013-08-04 15:01:00,76.5,59.2,29.79,West,261,0.0,9.0,51,0.00,,,0.00,895.0,meteohub,2013-08-04 19:01:00,
2013-08-04 15:07:00,76.6,59.7,29.79,West,261,1.0,11.0,52,0.00,,,0.00,251.0,meteohub,2013-08-04 19:07:00,
2013-08-04 15:12:00,76.6,59.2,29.79,WSW,257,3.0,11.0,51,0.00,,,0.00,872.0,meteohub,2013-08-04 19:12:00,
2013-08-04 15:17:00,76.6,58.8,29.79,West,273,4.0,11.0,50,0.00,,,0.00,207.0,meteohub,2013-08-04 19:17:00,
2013-08-04 15:22:00,76.6,58.8,29.79,NW,309,6.0,10.0,50,0.00,,,0.00,181.0,meteohub,2013-08-04 19:22:00,
2013-08-04 15:27:00,76.5,59.2,29.79,WNW,282,0.0,9.0,51,0.00,,,0.00,854.0,meteohub,2013-08-04 19:27:00,
2013-08-04 15:32:00,76.5,59.2,29.79,WSW,239,1.0,12.0,51,0.00,,,0.00,795.0,meteohub,2013-08-04 19:32:00,
2013-08-04 15:37:00,76.6,58.8,29.79,NW,304,6.0,12.0,50,0.00,,,0.00,807.0,meteohub,2013-08-04 19:37:00,
2013-08-04 15:42:00,76.8,58.5,29.79,WSW,257,5.0,12.0,49,0.00,,,0.00,167.0,meteohub,2013-08-04 19:42:00,
2013-08-04 15:47:00,77.0,58.6,29.79,WNW,292,2.0,14.0,49,0.00,,,0.00,153.0,meteohub,2013-08-04 19:47:00,
2013-08-04 15:52:00,77.0,59.0,29.79,WNW,286,8.0,14.0,50,0.00,,,0.00,749.0,meteohub,2013-08-04 19:52:00,
2013-08-04 15:57:00,77.4,59.4,29.79,WNW,302,5.0,14.0,50,0.00,,,0.00,765.0,meteohub,2013-08-04 19:57:00,
2013-08-04 16:02:00,77.5,59.5,29.79,WNW,302,0.0,15.0,50,0.00,,,0.00,803.0,meteohub,2013-08-04 20:02:00,
2013-08-04 16:07:00,77.7,58.6,29.79,WNW,296,10.0,15.0,48,0.00,,,0.00,220.0,meteohub,2013-08-04 20:07:00,
2013-08-04 16:12:00,77.7,58.1,29.79,WNW,298,2.0,15.0,47,0.00,,,0.00,686.0,meteohub,2013-08-04 20:12:00,
2013-08-04 16:17:00,77.5,57.4,29.79,WNW,290,6.0,13.0,46,0.00,,,0.00,594.0,meteohub,2013-08-04 20:17:00,
2013-08-04 16:22:00,77.5,57.9,29.79,WNW,292,6.0,13.0,47,0.00,,,0.00,575.0,meteohub,2013-08-04 20:22:00,
2013-08-04 16:27:00,77.5,58.5,29.79,WSW,255,0.0,13.0,48,0.00,,,0.00,568.0,meteohub,2013-08-04 20:27:00,
2013-08-04 16:32:00,77.5,59.0,29.79,SW,234,2.0,13.0,49,0.00,,,0.00,58.0,meteohub,2013-08-04 20:32:00,
2013-08-04 16:37:00,77.2,58.3,29.79,WNW,303,3.0,13.0,48,0.00,,,0.00,98.0,meteohub,2013-08-04 20:37:00,
2013-08-04 16:42:00,76.6,58.8,29.79,WNW,291,2.0,12.0,50,0.00,,,0.00,83.0,meteohub,2013-08-04 20:42:00,
2013-08-04 16:47:00,76.3,61.9,29.79,West,268,0.0,9.0,56,0.00,,,0.00,51.0,meteohub,2013-08-04 20:47:00,
2013-08-04 16:52:00,75.9,63.3,29.80,West,268,0.0,9.0,60,0.00,,,0.00,54.0,meteohub,2013-08-04 20:52:00,
2013-08-04 16:57:00,75.7,63.5,29.80,WNW,300,3.0,5.0,61,0.00,,,0.00,76.0,meteohub,2013-08-04 20:57:00,
2013-08-04 17:02:00,75.2,61.7,29.80,West,279,5.0,6.0,58,0.00,,,0.00,100.0,meteohub,2013-08-04 21:02:00,
2013-08-04 17:07:00,74.7,59.4,29.81,WNW,296,12.0,12.0,54,0.00,,,0.00,56.0,meteohub,2013-08-04 21:07:00,
2013-08-04 17:12:00,73.8,58.5,29.82,West,261,14.0,24.0,54,0.00,,,0.00,40.0,meteohub,2013-08-04 21:12:00,
2013-08-04 17:17:00,72.0,59.5,29.83,WNW,297,7.0,26.0,60,0.00,,,0.00,51.0,meteohub,2013-08-04 21:17:00,
2013-08-04 17:22:00,69.6,60.6,29.83,NW,307,3.0,26.0,67,0.02,,,0.02,86.0,meteohub,2013-08-04 21:22:00,
2013-08-04 17:28:00,68.2,60.6,29.82,WSW,238,0.0,26.0,71,0.04,,,0.03,118.0,meteohub,2013-08-04 21:28:00,
2013-08-04 17:33:00,67.5,62.1,29.81,WSW,238,0.0,21.0,76,0.04,,,0.04,213.0,meteohub,2013-08-04 21:33:00,
2013-08-04 17:38:00,66.9,62.6,29.81,WSW,238,0.0,11.0,79,0.04,,,0.04,301.0,meteohub,2013-08-04 21:38:00,
2013-08-04 17:42:00,66.7,63.1,29.81,WSW,238,0.0,9.0,81,0.04,,,0.04,341.0,meteohub,2013-08-04 21:42:00,
2013-08-04 17:48:00,66.7,63.3,29.81,WSW,238,0.0,4.0,82,0.04,,,0.04,211.0,meteohub,2013-08-04 21:48:00,
2013-08-04 17:49:00,66.7,63.3,29.81,WSW,238,0.0,4.0,82,0.04,,,0.04,258.0,meteohub,2013-08-04 21:49:00,
2013-08-04 17:54:00,66.7,62.8,29.82,WNW,294,2.0,4.0,80,0.04,,,0.04,220.0,meteohub,2013-08-04 21:54:00,
2013-08-04 17:59:00,66.9,63.0,29.82,NW,309,2.0,7.0,80,0.04,,,0.04,290.0,meteohub,2013-08-04 21:59:00,
2013-08-04 18:04:00,67.3,63.3,29.82,WNW,285,4.0,9.0,80,0.04,,,0.04,304.0,meteohub,2013-08-04 22:04:00,
2013-08-04 18:09:00,67.6,63.7,29.82,WNW,290,0.0,9.0,80,0.04,,,0.04,269.0,meteohub,2013-08-04 22:09:00,
2013-08-04 18:14:00,68.4,64.0,29.82,WNW,285,0.0,9.0,79,0.04,,,0.04,221.0,meteohub,2013-08-04 22:14:00,
2013-08-04 18:19:00,68.7,63.3,29.82,WNW,286,3.0,7.0,76,0.04,,,0.04,81.0,meteohub,2013-08-04 22:19:00,
2013-08-04 18:24:00,68.9,63.5,29.83,WNW,303,1.0,7.0,76,0.01,,,0.04,206.0,meteohub,2013-08-04 22:24:00,
2013-08-04 18:29:00,68.9,63.1,29.83,West,279,3.0,7.0,75,0.00,,,0.04,107.0,meteohub,2013-08-04 22:29:00,
2013-08-04 18:34:00,68.7,63.3,29.83,WNW,298,0.0,7.0,76,0.00,,,0.04,160.0,meteohub,2013-08-04 22:34:00,
2013-08-04 18:39:00,68.5,63.1,29.82,WNW,298,4.0,7.0,76,0.00,,,0.04,32.0,meteohub,2013-08-04 22:39:00,
2013-08-04 18:44:00,68.5,63.9,29.83,WNW,296,0.0,7.0,78,0.00,,,0.04,16.0,meteohub,2013-08-04 22:44:00,
2013-08-04 18:49:00,68.2,63.5,29.83,WNW,296,1.0,7.0,78,0.00,,,0.04,12.0,meteohub,2013-08-04 22:49:00,
2013-08-04 18:54:00,67.8,63.5,29.83,WNW,296,0.0,4.0,79,0.00,,,0.04,11.0,meteohub,2013-08-04 22:54:00,
2013-08-04 18:59:00,67.5,63.5,29.83,WNW,296,0.0,4.0,80,0.00,,,0.04,11.0,meteohub,2013-08-04 22:59:00,
2013-08-04 19:04:00,67.1,63.1,29.84,WNW,296,0.0,2.0,80,0.00,,,0.04,16.0,meteohub,2013-08-04 23:04:00,
2013-08-04 19:09:00,66.7,62.8,29.84,WNW,296,0.0,2.0,80,0.00,,,0.04,23.0,meteohub,2013-08-04 23:09:00,
2013-08-04 19:14:00,66.4,62.8,29.84,NNW,329,0.0,1.0,81,0.00,,,0.04,33.0,meteohub,2013-08-04 23:14:00,
2013-08-04 19:19:00,66.0,63.0,29.84,NNW,329,0.0,4.0,83,0.00,,,0.04,69.0,meteohub,2013-08-04 23:19:00,
2013-08-04 19:24:00,65.8,62.8,29.84,NW,319,0.0,4.0,83,0.00,,,0.04,98.0,meteohub,2013-08-04 23:24:00,
2013-08-04 19:30:00,65.8,62.8,29.84,West,279,0.0,4.0,83,0.00,,,0.04,56.0,meteohub,2013-08-04 23:30:00,
2013-08-04 19:35:00,65.8,62.8,29.84,West,279,0.0,5.0,83,0.00,,,0.04,21.0,meteohub,2013-08-04 23:35:00,
2013-08-04 19:40:00,65.8,62.8,29.84,West,279,0.0,5.0,83,0.00,,,0.04,11.0,meteohub,2013-08-04 23:40:00,
2013-08-04 19:45:00,65.7,62.6,29.84,West,279,0.0,5.0,83,0.00,,,0.04,7.0,meteohub,2013-08-04 23:45:00,
2013-08-04 19:50:00,65.5,62.4,29.85,West,279,0.0,4.0,83,0.00,,,0.04,5.0,meteohub,2013-08-04 23:50:00,
2013-08-04 19:55:00,65.3,62.1,29.85,West,279,0.0,3.0,82,0.00,,,0.04,0.0,meteohub,2013-08-04 23:55:00,
2013-08-04 20:00:00,64.9,61.9,29.86,West,279,0.0,3.0,83,0.00,,,0.04,0.0,meteohub,2013-08-05 00:00:00,
2013-08-04 20:04:00,64.8,61.7,29.86,West,279,0.0,3.0,83,0.00,,,0.04,0.0,meteohub,2013-08-05 00:04:00,
2013-08-04 20:10:00,64.6,61.5,29.86,West,279,2.0,4.0,83,0.00,,,0.04,0.0,meteohub,2013-08-05 00:10:00,
2013-08-04 20:15:00,64.2,61.2,29.86,West,280,3.0,4.0,83,0.00,,,0.04,0.0,meteohub,2013-08-05 00:15:00,
2013-08-04 20:20:00,63.9,60.8,29.86,West,280,1.0,4.0,83,0.00,,,0.04,0.0,meteohub,2013-08-05 00:20:00,
2013-08-04 20:25:00,63.9,61.2,29.87,West,280,0.0,4.0,84,0.00,,,0.04,0.0,meteohub,2013-08-05 00:25:00,
2013-08-04 20:30:00,63.5,60.4,29.87,West,280,0.0,4.0,83,0.00,,,0.04,0.0,meteohub,2013-08-05 00:30:00,
2013-08-04 20:35:00,63.3,60.3,29.87,West,280,0.0,3.0,83,0.00,,,0.04,0.0,meteohub,2013-08-05 00:35:00,
2013-08-04 20:40:00,63.1,60.4,29.87,West,279,0.0,3.0,84,0.00,,,0.04,0.0,meteohub,2013-08-05 00:40:00,
2013-08-04 20:45:00,63.0,60.3,29.88,West,279,4.0,4.0,84,0.00,,,0.04,0.0,meteohub,2013-08-05 00:45:00,
2013-08-04 20:50:00,62.8,60.1,29.87,West,279,1.0,4.0,84,0.00,,,0.04,0.0,meteohub,2013-08-05 00:50:00,
2013-08-04 20:55:00,62.6,59.9,29.87,West,279,0.0,4.0,84,0.00,,,0.04,0.0,meteohub,2013-08-05 00:55:00,
2013-08-04 21:00:00,62.4,59.7,29.88,West,279,0.0,4.0,84,0.00,,,0.04,0.0,meteohub,2013-08-05 01:00:00,
2013-08-04 21:05:00,62.2,59.5,29.88,West,279,2.0,2.0,84,0.00,,,0.04,0.0,meteohub,2013-08-05 01:05:00,
2013-08-04 21:10:00,62.1,59.4,29.88,West,279,2.0,2.0,84,0.00,,,0.04,0.0,meteohub,2013-08-05 01:10:00,
2013-08-04 21:15:00,61.9,59.2,29.88,West,279,0.0,2.0,84,0.00,,,0.04,0.0,meteohub,2013-08-05 01:15:00,
2013-08-04 21:20:00,61.7,59.4,29.88,West,279,1.0,2.0,85,0.00,,,0.04,0.0,meteohub,2013-08-05 01:20:00,
2013-08-04 21:25:00,61.5,59.2,29.88,West,279,0.0,3.0,85,0.00,,,0.04,0.0,meteohub,2013-08-05 01:25:00,
2013-08-04 21:30:00,61.3,59.0,29.89,West,279,0.0,3.0,85,0.00,,,0.04,0.0,meteohub,2013-08-05 01:30:00,
2013-08-04 21:35:00,61.2,58.8,29.89,West,276,0.0,4.0,85,0.00,,,0.04,0.0,meteohub,2013-08-05 01:35:00,
2013-08-04 21:40:00,61.0,58.6,29.89,West,275,0.0,4.0,85,0.00,,,0.04,0.0,meteohub,2013-08-05 01:40:00,
2013-08-04 21:45:00,61.0,59.0,29.89,West,276,0.0,4.0,86,0.00,,,0.04,0.0,meteohub,2013-08-05 01:45:00,
2013-08-04 21:50:00,60.8,58.8,29.89,West,276,1.0,2.0,86,0.00,,,0.04,0.0,meteohub,2013-08-05 01:50:00,
2013-08-04 21:55:00,60.6,58.6,29.89,West,276,0.0,3.0,86,0.00,,,0.04,0.0,meteohub,2013-08-05 01:55:00,
2013-08-04 22:00:00,60.4,58.5,29.89,West,276,2.0,3.0,86,0.00,,,0.04,0.0,meteohub,2013-08-05 02:00:00,
2013-08-04 22:05:00,60.4,58.5,29.89,West,276,0.0,4.0,86,0.00,,,0.04,0.0,meteohub,2013-08-05 02:05:00,
2013-08-04 22:10:00,60.3,58.3,29.89,West,276,0.0,4.0,86,0.00,,,0.04,0.0,meteohub,2013-08-05 02:10:00,
2013-08-04 22:15:00,60.3,58.3,29.89,West,276,0.0,4.0,86,0.00,,,0.04,0.0,meteohub,2013-08-05 02:15:00,
2013-08-04 22:20:00,60.3,58.5,29.89,West,276,0.0,4.0,86,0.00,,,0.04,0.0,meteohub,2013-08-05 02:20:00,
2013-08-04 22:25:00,60.3,58.5,29.89,West,276,0.0,4.0,86,0.00,,,0.04,0.0,meteohub,2013-08-05 02:25:00,
2013-08-04 22:30:00,60.1,58.3,29.89,West,276,0.0,2.0,86,0.00,,,0.04,0.0,meteohub,2013-08-05 02:30:00,
2013-08-04 22:35:00,60.1,58.3,29.89,West,276,0.0,2.0,86,0.00,,,0.04,0.0,meteohub,2013-08-05 02:35:00,
2013-08-04 22:40:00,60.1,58.3,29.89,West,276,0.0,2.0,86,0.00,,,0.04,0.0,meteohub,2013-08-05 02:40:00,
2013-08-04 22:45:00,59.9,58.1,29.89,West,276,0.0,3.0,86,0.00,,,0.04,0.0,meteohub,2013-08-05 02:45:00,
2013-08-04 22:50:00,59.7,57.7,29.90,West,276,2.0,3.0,86,0.00,,,0.04,0.0,meteohub,2013-08-05 02:50:00,
2013-08-04 22:55:00,59.5,57.6,29.90,West,276,2.0,3.0,86,0.00,,,0.04,0.0,meteohub,2013-08-05 02:55:00,
2013-08-04 23:00:00,59.5,57.7,29.90,West,276,0.0,3.0,86,0.00,,,0.04,0.0,meteohub,2013-08-05 03:00:00,
2013-08-04 23:05:00,59.4,57.6,29.90,West,276,0.0,3.0,86,0.00,,,0.04,0.0,meteohub,2013-08-05 03:05:00,
2013-08-04 23:10:00,59.4,57.6,29.90,West,276,0.0,3.0,86,0.00,,,0.04,0.0,meteohub,2013-08-05 03:10:00,
2013-08-04 23:15:00,59.4,57.6,29.90,West,276,0.0,2.0,86,0.00,,,0.04,0.0,meteohub,2013-08-05 03:15:00,
2013-08-04 23:20:00,59.2,57.4,29.90,West,276,0.0,3.0,86,0.00,,,0.04,0.0,meteohub,2013-08-05 03:20:00,
2013-08-04 23:25:00,59.2,57.4,29.90,West,275,0.0,3.0,86,0.00,,,0.04,0.0,meteohub,2013-08-05 03:25:00,
2013-08-04 23:30:00,58.8,57.0,29.90,West,275,2.0,3.0,86,0.00,,,0.04,0.0,meteohub,2013-08-05 03:30:00,
2013-08-04 23:35:00,58.8,57.0,29.91,West,270,0.0,6.0,86,0.00,,,0.04,0.0,meteohub,2013-08-05 03:35:00,
2013-08-04 23:40:00,58.6,56.8,29.91,West,271,2.0,6.0,86,0.00,,,0.04,0.0,meteohub,2013-08-05 03:40:00,
2013-08-04 23:45:00,58.6,56.8,29.91,West,271,0.0,6.0,86,0.00,,,0.04,0.0,meteohub,2013-08-05 03:45:00,
2013-08-04 23:50:00,58.5,56.7,29.91,West,271,3.0,4.0,86,0.00,,,0.04,0.0,meteohub,2013-08-05 03:50:00,
2013-08-04 23:55:00,58.5,56.5,29.91,WNW,290,4.0,5.0,86,0.00,,,0.04,0.0,meteohub,2013-08-05 03:55:00,